COSMOS 2242

Satellite information

Favourite Embed

Satellite Type and Status

PAYLOADIN ORBIT

Key statistics

Satellite COSMOS 2242 at a glance.

Uptime

11712

Days in orbit

Revolutions

≈ 15.0

Per day

Orbit

LEO

Low Earth Orbit

Inclination

82.5

Latest

Satellite identification and parameters

Extended collection of information and parameters for COSMOS 2242.

Object identification

Identified? True

Debris? False

Object name: COSMOS 2242

International designator: 1993-024A

Object number (NORAD): 22626

Object ID (CCSDS): 22626

Country: COMMONWEALTH OF INDEPENDENT STATES (CIS)

Current information (Y/N): Y

RCS size: LARGE

Orbital parameters

Period: 96.318 minutes

Inclination: 82.5214 deg

SMA: 6960.379 km

Apoapsis: 592.946 km

Periapsis: 571.542 km

RAAN: 197.1598 deg

Eccentricy: 0.0015376

Argument of periapsis: 244.8182 deg

Mean anomaly: 115.1445 deg

Mean motion: 14.95042091 rev/day

Mean motion (dot): 0.00002038 rev/day2

B* drag term: 0.00018354 1/REarth

Two-line elements (TLE)

Creation date: May 10, 2025, 2:32 a.m.

Reference frame: TEME

Reference center: EARTH

Epoch: May 9, 2025, 1:57 p.m. UTC

TLE line 0: 0 COSMOS 2242

TLE line 1: 1 22626U 93024A 25129.58143757 .00002038 00000-0 18354-3 0 9992

TLE line 2: 2 22626 82.5214 197.1598 0015376 244.8182 115.1445 14.95042091734935

Live tracking on map

Real-time ground track for satellite COSMOS 2242.

In-orbit conjunctions

A list of the most updated potential collisions computed for object COSMOS 2242.

Target Orbit TCA Probability of collision Miss distance Type
FENGYUN 1C DEB SSO 2025-04-20 01:20:50 0.0001401641 456.0 (m) DEBRIS
FENGYUN 1C DEB SSO 2024-10-23 05:34:52 0.0001384098 474.0 (m) DEBRIS
FENGYUN 1C DEB SSO 2024-09-07 12:40:25 0.000117893 660.0 (m) DEBRIS

Associated space launch

Tselina-R series ELINT satellite

COSMOS 2242 was lifted into orbit during the mission ‘Tsiklon-3 | Tselina-R 4’, on board a Tsiklon-3 space rocket.

The launch took place on April 16, 1993, 7:49 a.m. from 32/1.

For more information about the launch, click the button.

Launch to space Tsiklon-3 | Tselina-R 4
Tsiklon-3 | Tselina-R 4

Agency: N/A

Status: Launch Successful

Launch date: April 16, 1993, 7:49 a.m. UTC

Rocket: Tsiklon-3

Launch pad: 32/1

Location: Plesetsk Cosmodrome, Russian Federation

...

Latest news about this satellite

There are no fresh news available about this satellite. Check back as we update our databases every day.


Newsletter sign-up

Weekly statistics, charts and insights to help you stay on top of the space industry.